Location: Aragnouet
(42.7874°N, 0.2165°E)
Time: 18:21:36
(UTC+00:00)

Cosmos 2333 Rocket - Pass Details

Date: 09 April 2020
Orbit: 841 x 861 km, 70.8° (Epoch: 31 May)

Event Time Altitude Azimuth Distance (km) Brightness Sun altitude
Rises 23:36:25 0° 344° (NNW) 3,406 6.3 -38.9°
Reaches altitude 10° 23:39:26 10° 359° (N) 2,468 5.3 -38.9°
Enters shadow 23:42:32 21° 31° (NNE) 1,824 4.3 -39.0°
